Regional Weather Roundup
Issued by NWS

Home | Current Version | Previous Version | Text Only | Print | Product List | Glossary On
Versions: 1 2 3 4 5 6 7 8 9 10 11 12 13 14 15 16 17 18 19 20 21 22 23 24 25 26 27
000
ASUS46 KSEW 201010
RWRWA

WASHINGTON REGIONAL WEATHER ROUNDUP
NATIONAL WEATHER SERVICE SEATTLE WA
300 AM PDT FRI OCT 20 2017

NOTE:"FAIR" INDICATES FEW OR NO CLOUDS BELOW 12,000 FEET WITH NO
SIGNIFICANT WEATHER AND/OR OBSTRUCTIONS TO VISIBILITY.

WAZ507-509-555>559-201100-
SEATTLE, TACOMA, EVERETT, AND VICINITY

CITY           SKY/WX    TMP DP  RH WIND       PRES   REMARKS
EVERETT        LGT RAIN  48  46  93 VRB3      29.55R
BOEING FIELD   CLOUDY    49  45  86 VRB7      29.55R
RENTON         CLOUDY    50  47  89 VRB6      29.55R
SEATAC AIRPORT CLOUDY    48  45  89 SW16G22   29.55R
JBLM-MCCHORD   PTCLDY    47  47  99 SW14      29.57R
PUYALLUP       CLOUDY    48  46  93 S5        29.58R
BREMERTON      CLOUDY    46  45  96 S5        29.55R
JBLM-FT LEWIS  MOCLDY    47  47  99 S9        29.57R
TACOMA NARROWS CLOUDY    47  45  93 SW8G17    29.56R
$$

WAZ001-503-506-510-514-515-201100-
NORTH INTERIOR

CITY           SKY/WX    TMP DP  RH WIND       PRES   REMARKS
BELLINGHAM     CLOUDY    48  47  96 S5        29.51S
FRIDAY HARBOR  MOCLDY    45  44  97 SW5       29.53R
EASTSOUND      CLOUDY    48  46  93 SW3       29.52R
PORT ANGELES   PTCLDY    46  41  82 W8G18     29.53R
EDIZ HOOK      FAIR      46  43  90 SW3       29.52R
PORT TOWNSEND  FOG       45  45 100 CALM      29.55R VSB 1/4
NAS WHIDBEY    CLOUDY    50  44  80 SW7       29.57R
ARLINGTON      LGT RAIN  47  46  97 NE3       29.55R
BURLINGTON     CLOUDY    46  46 100 S3        29.54R
$$

WAZ020-022-039-040-504-511-512-201100-
SOUTHWEST INTERIOR

CITY           SKY/WX    TMP DP  RH WIND       PRES   REMARKS
SHELTON        LGT RAIN  47  45  93 SW9       29.55R
OLYMPIA        MOCLDY    45  45 100 S6        29.58R
CHEHALIS       CLOUDY    48  48 100 VRB5      29.60R
KELSO          MOCLDY    49  48  97 SE5       29.64R
VANCOUVER      MOCLDY    50  47  89 VRB3      29.65R
SCAPPOOSE, OR  PTCLDY    47  46  97 CALM      29.63R
PORTLAND, OR   MOCLDY    49  46  90 SW12      29.65R
$$

WAZ021-516-517-201100-
WASHINGTON COAST

CITY           SKY/WX    TMP DP  RH WIND       PRES   REMARKS
FORKS          FOG       40  39  97 CALM      29.54R VSB 3/4
HOQUIAM        MOCLDY    50  48  93 S9        29.57S
ASTORIA, OR    MOCLDY    49  46  90 S5        29.60R FOG
$$

WAZ019-023-024-040-567>569-201100-
CASCADE MOUNTAINS AND COLUMBIA GORGE

CITY           SKY/WX    TMP DP  RH WIND       PRES   REMARKS
STAMPEDE PASS  LGT RAIN  36  36 100 VRB5      29.49S VSB 1/2
TROUTDALE, OR  LGT RAIN  51  45  79 SW14G21   29.65R
HOOD RIVER, OR CLOUDY    46  45  93 CALM      29.60S
THE DALLES, OR CLOUDY    50  44  80 CALM      29.59R
$$

WAZ026-027-041>044-520-521-201100-
EAST SLOPES

CITY           SKY/WX    TMP DP  RH WIND       PRES   REMARKS
OMAK           CLOUDY    50  48  93 SE12      29.42F
WENATCHEE      CLOUDY    45  42  89 CALM      29.48R
ELLENSBURG     CLOUDY    43  40  89 CALM      29.50R
YAKIMA         CLOUDY    50  38  63 SW3       29.51S
SUNNYSIDE ARPT CLOUDY    46  40  82 SE5       29.54F
YAKIMA TC      PTSUNNY   48  37  65 S9        29.49S
$$

WAZ028-034-035-201100-
COLUMBIA BASIN

CITY           SKY/WX    TMP DP  RH WIND       PRES   REMARKS
EPHRATA        CLOUDY    47  42  83 S8        29.48S
MOSES LAKE     CLOUDY    47  44  90 S10       29.49F
PASCO          CLOUDY    51  43  74 S16G26    29.54S
RICHLAND ARPT  CLOUDY    52  44  73 S20G25    29.54R
HERMISTON, OR  CLOUDY    49  45  86 SW6       29.58F
$$

WAZ036>038-201100-
NORTHEAST WASHINGTON

CITY           SKY/WX    TMP DP  RH WIND       PRES   REMARKS
SPOKANE GEIGER CLOUDY    45  44  97 S14       29.50S
SPOKANE FELTS  LGT RAIN  47  45  93 SW9       29.51S
FAIRCHILD AFB  LGT RAIN  44  44 100 SW15G22   29.49S
COEURDALENE,ID LGT RAIN  44  42  93 S8        29.51F
DEER PARK      LGT RAIN  46  44  93 S9        29.49F
$$

WAZ029>033-201100-
SOUTHEAST WASHINGTON

CITY           SKY/WX    TMP DP  RH WIND       PRES   REMARKS
PULLMAN        LGT RAIN  43  40  89 SW14      29.57S
LEWISTON, ID   RAIN      46  46 100 SE3       29.58R
WALLA WALLA    LGT RAIN  48  41  76 S14       29.58F
PENDLETON, OR  LGT RAIN  45  42  89 S6        29.58F
$$




USA.gov is the U.S. government's official web portal to all federal, state and local government web resources and services.